Regional Weather Roundup
Issued by NWS Newport/Morehead, NC

Home | Current Version | Previous Version | Text Only | Print | Product List | Glossary On
Versions: 1 2 3 4 5 6 7 8 9 10 11 12 13 14 15 16 17 18 19 20 21 22 23 24 25 26 27 28 29 30 31 32 33 34 35 36 37 38 39 40 41 42 43 44 45 46 47 48 49 50
000
ASUS42 KMHX 301425
RWRMHX
WEATHER ROUNDUP FOR EASTERN NORTH CAROLINA
NATIONAL WEATHER SERVICE NEWPORT/MOREHEAD CITY NC
1000 AM EDT TUE AUG 30 2016

NOTE: "FAIR" INDICATES FEW OR NO CLOUDS BELOW 12,000 FEET
WITH NO SIGNIFICANT WEATHER AND/OR OBSTRUCTIONS TO VISIBILITY

NCZ015>017-031-032-045>047-102-103-301500-
NORTH COAST

CITY           SKY/WX    TMP DP  RH WIND       PRES   REMARKS
EDENTON        PTSUNNY   82  73  75 NE9       30.09S
ELIZABETH CITY PTSUNNY   82  73  74 NE17      30.09R
KITTY HAWK     CLOUDY    85  79  81 NE10G16   30.07R
MANTEO         CLOUDY    81  76  86 E14       30.08R

$$

NCZ045>047-081-094-103-104-301500-
CENTRAL COAST

CITY           SKY/WX    TMP DP  RH WIND       PRES   REMARKS
FRISCO         CLOUDY    79  77  94 NE6       30.04R

$$

NCZ095-097-098-100-101-301500-
SOUTHERN COAST

CITY           SKY/WX    TMP DP  RH WIND       PRES   REMARKS
BEAUFORT       CLOUDY    81  78  91 NE14      30.05R
CEDAR ISLAND   NOT AVBL
JACKSONVILLE   MOSUNNY   79  72  79 N9        30.08R
PINEY ISLAND   CLOUDY   N/A N/A N/A N15       30.05R
WILMINGTON     CLOUDY    78  73  84 NW6       30.08R


$$

NCZ011>013-027>030-043-044-078>080-089-090>093-098-301500-
COASTAL PLAIN

CITY           SKY/WX    TMP DP  RH WIND       PRES   REMARKS
AHOSKIE        MOSUNNY   79  68  70 N8        30.11R
CLINTON        SUNNY     79  70  73 NE6       30.10S
ELIZABETHTOWN  SUNNY     78  69  74 E3        30.10R
GOLDSBORO      MOSUNNY   79  69  72 NE12      30.08S
GREENVILLE     MOSUNNY   81  68  65 NE10      30.11S
HAVELOCK       CLOUDY    80  74  81 N12       30.07S
KENANSVILLE    SUNNY     79  72  78 NE7       30.10R
KINSTON        MOSUNNY   79  68  69 N8        30.10S
NEW BERN       MOSUNNY   77  73  87 N9        30.08R
RICHLANDS      MOSUNNY   78  73  84 N8        30.09R
ROCKY MOUNT    MOSUNNY   81  67  62 NE8       30.12R
WASHINGTON     MOSUNNY   77  72  85 NE10      30.09S
WHITEVILLE     MOSUNNY   76  69  80 NE3       30.09R

$$

AMZ130-135-150-152-154-156-158-170-250-252-270-ANZ085-086-088-633-658-670-301500-
MARINE OBSERVATIONS

STATION/POSITION TIME  TEMP    WIND        PRES    WAVE   SWELL
                       AIR SEA DIR/SP/G            HT/PER HT/PER
                 (UTC) (F)     (DEG/KT/KT) (MB)    (FT/S) (FT/S)
CHESAPEAKE LIGHT NOT AVBL
64 E VA BEACH    1350   80 80   50/ 16/ 17 1018.1    6/11   5/11
DUCK             1400   80 79   40/ 16/ 17 1017.9
2 E DUCK         1311      79                N/A     4/12   2/12
OREGON INLET     1400   80 81   40/ 13/ 17 1017.8
13E OREGON INLT  1400      80                N/A     5/13   5/13
HATTERAS CG      1400   80 82   30/ 10/ 14 1017.0
DIAMOND BUOY     1350   82 84   70/ 16/ 19 1016.3    7/13   5/13
CAPE LOOKOUT     1400   79     360/ 10/ 13 1017.0
BEAUFORT LAB     1400   80 81   10/  7/ 10 1016.7
30 SE NEW RVR IN 1408   81 84   30/ 12/ 16 1017.6
30 SE NEW RVR IN 1325      84                N/A     5/13   2/13
27 SE WRIGHTSVLE 1408   80 84  350/  8/ 12 1018.2
5 SE WRIGHTSVLE  1408   77 83   20/  8/ 14 1019.1
225 S CAPE HAT   1350   83 84  260/ 12/ 14 1017.4    5/10   3/10
41 SE CHARLESTON 1350   82 85   60/ 14/ 16 1017.4    3/11   2/11

$$




USA.gov is the U.S. government's official web portal to all federal, state and local government web resources and services.